User: anonymous   Login
Location: Marseilles
(40.7010°N, 83.3930°W)
Time: 07:29:35
(UTC-05:00)
Language:

Cosmos 1459 Rocket - Orbit

View from above orbital plane
View from above orbital plane
View from above satellite
View from above satellite

Ground track
Ground track

The orbit data is extracted from the following two-line orbital elements,

1 14059U 83042B   14350.12273988  .00000170  00000-0  15286-3 0  4458
2 14059 082.9712 020.3299 0041363 314.8902 097.5154 13.78481299589824
Epoch (UTC): 16 December 2014 02:56:44
Eccentricity: 0.0041363
inclination: 82.9712°
perigee height: 939 km
apogee height: 999 km
right ascension of ascending node: 20.3299°
argument of perigee: 314.8902°
revolutions per day: 13.78481299
mean anomaly at epoch: 97.5154°
orbit number at epoch: 58982

The dashed part of the orbit path shows where the satellite is in the earth's shadow,  

DLR